THY1TP LTBS-LTFM

Flight info

Callsign THY1TP
Flight time 0h 56m
Altitude 32000
Route RIVBU DCT BAGLU DCT ATGIT UT58 KFK UM855 SISPI
Aircraft B789/H-SDE1E2E3FGHIJ2J3J4J5M1RWXY/LB1D1

Departure

Time 2026-04-25 13:55
Airport Dalaman International Airport (LTBS)

Arrival

Time 2026-04-25 14:51
Airport İstanbul Airport (LTFM)
Time Latitude Longitude Altitude Speed Heading
2026-04-25 13:21 36.71606 28.78821 18 ft 0 kts 285°
2026-04-25 13:45 36.71602 28.78843 19 ft 4 kts 278°
2026-04-25 13:45 36.71600 28.78877 21 ft 4 kts 261°
2026-04-25 13:45 36.71609 28.78907 21 ft 4 kts 228°
2026-04-25 13:45 36.71624 28.78921 20 ft 0 kts 196°
2026-04-25 13:48 36.71619 28.78919 20 ft 1 kts 196°
2026-04-25 13:49 36.71605 28.78914 20 ft 3 kts 196°
2026-04-25 13:49 36.71567 28.78900 19 ft 8 kts 195°
2026-04-25 13:49 36.71527 28.78886 18 ft 9 kts 195°
2026-04-25 13:49 36.71458 28.78863 18 ft 11 kts 195°
2026-04-25 13:50 36.71384 28.78841 18 ft 7 kts 176°
2026-04-25 13:50 36.71357 28.78870 18 ft 5 kts 123°
2026-04-25 13:50 36.71342 28.78924 18 ft 8 kts 103°
2026-04-25 13:50 36.71325 28.78999 18 ft 10 kts 118°
2026-04-25 13:51 36.71259 28.79019 18 ft 12 kts 192°
2026-04-25 13:51 36.71162 28.78986 18 ft 17 kts 196°
2026-04-25 13:51 36.71037 28.78943 18 ft 21 kts 195°
2026-04-25 13:51 36.70883 28.78890 18 ft 25 kts 195°
2026-04-25 13:52 36.70717 28.78834 18 ft 25 kts 195°
2026-04-25 13:52 36.70548 28.78777 18 ft 25 kts 195°
2026-04-25 13:52 36.70377 28.78719 19 ft 26 kts 195°
2026-04-25 13:52 36.70205 28.78660 19 ft 25 kts 195°
2026-04-25 13:53 36.70090 28.78637 19 ft 13 kts 167°
2026-04-25 13:53 36.70053 28.78702 20 ft 9 kts 105°
2026-04-25 13:53 36.70039 28.78784 19 ft 10 kts 90°
2026-04-25 13:53 36.70072 28.78829 19 ft 7 kts 21°
2026-04-25 13:54 36.70092 28.78836 19 ft 0 kts 15°
2026-04-25 13:54 36.70113 28.78843 19 ft 17 kts 15°
2026-04-25 13:54 36.70452 28.78958 19 ft 86 kts 15°
2026-04-25 13:54 36.71238 28.79226 18 ft 149 kts 15°
2026-04-25 13:55 36.72343 28.79616 475 ft 165 kts 20°
2026-04-25 13:55 36.73392 28.80246 1276 ft 172 kts 33°
2026-04-25 13:55 36.74415 28.81077 2145 ft 174 kts 33°
2026-04-25 13:55 36.75453 28.81868 3040 ft 179 kts 31°
2026-04-25 13:56 36.76601 28.82679 3742 ft 203 kts 31°
2026-04-25 13:56 36.77906 28.83608 4377 ft 230 kts 31°
2026-04-25 13:56 36.79373 28.84664 4903 ft 259 kts 31°
2026-04-25 13:56 36.81001 28.85834 5776 ft 275 kts 31°
2026-04-25 13:57 36.82681 28.87040 6823 ft 282 kts 31°
2026-04-25 13:57 36.83811 28.87854 7485 ft 286 kts 31°
2026-04-25 13:57 36.86020 28.89780 8753 ft 295 kts 38°
2026-04-25 13:57 36.87724 28.91233 9767 ft 301 kts 35°
2026-04-25 13:58 36.89495 28.92727 10428 ft 317 kts 36°
2026-04-25 13:58 36.91372 28.94398 10756 ft 345 kts 37°
2026-04-25 13:58 36.93378 28.96202 11319 ft 359 kts 37°
2026-04-25 13:58 36.95422 28.98011 12367 ft 362 kts 36°
2026-04-25 13:59 36.97489 28.99831 13326 ft 366 kts 36°
2026-04-25 13:59 36.99580 29.01684 14206 ft 370 kts 37°
2026-04-25 13:59 37.01689 29.03561 15029 ft 374 kts 37°
2026-04-25 13:59 37.03822 29.05457 15828 ft 378 kts 37°
2026-04-25 14:00 37.05975 29.07369 16627 ft 382 kts 37°
2026-04-25 14:00 37.08151 29.09305 17431 ft 386 kts 37°
2026-04-25 14:00 37.10353 29.11265 18176 ft 390 kts 37°
2026-04-25 14:00 37.12578 29.13247 18835 ft 394 kts 37°
2026-04-25 14:01 37.14818 29.15245 19484 ft 398 kts 37°
2026-04-25 14:01 37.17085 29.17267 20123 ft 402 kts 37°
2026-04-25 14:01 37.19343 29.19283 20738 ft 405 kts 37°
2026-04-25 14:01 37.21679 29.21370 21357 ft 409 kts 37°
2026-04-25 14:02 37.23977 29.23425 21934 ft 413 kts 37°
2026-04-25 14:02 37.26328 29.25529 22510 ft 417 kts 38°
2026-04-25 14:02 37.28697 29.27651 23065 ft 420 kts 38°
2026-04-25 14:02 37.30311 29.29097 23436 ft 423 kts 38°
2026-04-25 14:03 37.33630 29.31691 24044 ft 429 kts 25°
2026-04-25 14:03 37.36410 29.33105 24464 ft 432 kts 23°
2026-04-25 14:03 37.39215 29.34478 24938 ft 434 kts 22°
2026-04-25 14:03 37.42037 29.35847 25374 ft 436 kts 22°
2026-04-25 14:04 37.44863 29.37247 25833 ft 438 kts 23°
2026-04-25 14:04 37.47712 29.38669 26240 ft 440 kts 23°
2026-04-25 14:04 37.50573 29.40087 26661 ft 443 kts 22°
2026-04-25 14:04 37.53445 29.41504 27077 ft 445 kts 22°
2026-04-25 14:05 37.56293 29.42915 27488 ft 447 kts 22°
2026-04-25 14:05 37.59195 29.44359 27898 ft 449 kts 22°
2026-04-25 14:05 37.62142 29.45825 28078 ft 453 kts 22°
2026-04-25 14:05 37.65030 29.47260 28579 ft 453 kts 22°
2026-04-25 14:06 37.67965 29.48720 28986 ft 454 kts 22°
2026-04-25 14:06 37.70895 29.50180 29573 ft 452 kts 22°
2026-04-25 14:06 37.73816 29.51637 30099 ft 451 kts 22°
2026-04-25 14:06 37.76725 29.53088 30584 ft 450 kts 22°
2026-04-25 14:07 37.79639 29.54543 31009 ft 450 kts 22°
2026-04-25 14:07 37.82551 29.55999 31454 ft 449 kts 22°
2026-04-25 14:07 37.85453 29.57451 31878 ft 448 kts 22°
2026-04-25 14:07 37.88367 29.58910 32009 ft 455 kts 22°
2026-04-25 14:08 37.91311 29.60385 32017 ft 453 kts 22°
2026-04-25 14:08 37.97144 29.63312 32005 ft 448 kts 22°
2026-04-25 14:09 38.02927 29.66219 32015 ft 447 kts 22°
2026-04-25 14:09 38.08680 29.69116 32009 ft 448 kts 22°
2026-04-25 14:10 38.14482 29.72042 32009 ft 449 kts 22°
2026-04-25 14:10 38.20347 29.74720 32035 ft 448 kts 10°
2026-04-25 14:11 38.26578 29.75357 32020 ft 450 kts
2026-04-25 14:11 38.32830 29.75778 32019 ft 450 kts
2026-04-25 14:12 38.39084 29.76217 32012 ft 451 kts
2026-04-25 14:12 38.45368 29.76649 32009 ft 451 kts
2026-04-25 14:13 38.51649 29.77087 32005 ft 452 kts
2026-04-25 14:13 38.57934 29.77524 32003 ft 453 kts
2026-04-25 14:14 38.64228 29.77962 31995 ft 453 kts
2026-04-25 14:14 38.70513 29.78401 31990 ft 452 kts
2026-04-25 14:15 38.76798 29.78840 31986 ft 453 kts
2026-04-25 14:15 38.83095 29.79282 31984 ft 454 kts
2026-04-25 14:16 38.89398 29.79724 31979 ft 453 kts
2026-04-25 14:16 38.95640 29.80163 31975 ft 451 kts
2026-04-25 14:17 39.01919 29.80605 31974 ft 451 kts
2026-04-25 14:17 39.08174 29.81046 31968 ft 449 kts
2026-04-25 14:18 39.14416 29.81488 31966 ft 448 kts
2026-04-25 14:18 39.20625 29.81927 31968 ft 446 kts
2026-04-25 14:19 39.26805 29.82366 31964 ft 444 kts
2026-04-25 14:19 39.32965 29.82803 31961 ft 442 kts
2026-04-25 14:20 39.39104 29.83240 31959 ft 441 kts
2026-04-25 14:20 39.45224 29.83677 31957 ft 440 kts
2026-04-25 14:21 39.51330 29.84113 31957 ft 439 kts
2026-04-25 14:21 39.57418 29.84548 31955 ft 437 kts
2026-04-25 14:22 39.63483 29.84983 31960 ft 436 kts
2026-04-25 14:22 39.69532 29.85418 31956 ft 435 kts
2026-04-25 14:23 39.75581 29.85853 31959 ft 434 kts
2026-04-25 14:23 39.81568 29.86284 31960 ft 433 kts
2026-04-25 14:24 39.87587 29.86719 31957 ft 432 kts
2026-04-25 14:24 39.93599 29.86973 31969 ft 433 kts
2026-04-25 14:25 39.99580 29.86994 31731 ft 422 kts
2026-04-25 14:25 40.02518 29.86996 31167 ft 422 kts
2026-04-25 14:25 40.05451 29.86976 30625 ft 421 kts
2026-04-25 14:25 40.06441 29.86970 30433 ft 421 kts
2026-04-25 14:26 40.11283 29.86967 29512 ft 416 kts
2026-04-25 14:26 40.14164 29.86967 28969 ft 411 kts
2026-04-25 14:26 40.17018 29.86959 28451 ft 407 kts
2026-04-25 14:26 40.19801 29.86953 27944 ft 403 kts
2026-04-25 14:27 40.22594 29.86950 27416 ft 400 kts
2026-04-25 14:27 40.25363 29.86945 26913 ft 396 kts
2026-04-25 14:27 40.28114 29.86939 26418 ft 393 kts
2026-04-25 14:27 40.30837 29.86934 25915 ft 391 kts
2026-04-25 14:28 40.33552 29.86930 25432 ft 390 kts
2026-04-25 14:28 40.36263 29.86925 24942 ft 389 kts
2026-04-25 14:28 40.38961 29.86942 24462 ft 386 kts
2026-04-25 14:28 40.41560 29.87649 23991 ft 380 kts 22°
2026-04-25 14:29 40.43854 29.89315 23533 ft 376 kts 34°
2026-04-25 14:29 40.46013 29.91257 23001 ft 375 kts 35°
2026-04-25 14:29 40.48142 29.93239 22533 ft 374 kts 36°
2026-04-25 14:29 40.50268 29.95200 22078 ft 373 kts 33°
2026-04-25 14:30 40.52612 29.96608 21654 ft 371 kts 13°
2026-04-25 14:30 40.57717 29.96951 20716 ft 364 kts 360°
2026-04-25 14:30 40.60238 29.96920 20267 ft 361 kts 359°
2026-04-25 14:31 40.62720 29.96909 19826 ft 362 kts
2026-04-25 14:31 40.65236 29.96919 19379 ft 360 kts
2026-04-25 14:31 40.67715 29.96741 18951 ft 354 kts 346°
2026-04-25 14:31 40.70048 29.95744 18535 ft 354 kts 341°
2026-04-25 14:32 40.72378 29.94675 18083 ft 355 kts 340°
2026-04-25 14:32 40.74685 29.93600 17647 ft 348 kts 340°
2026-04-25 14:32 40.76964 29.92546 17222 ft 346 kts 340°
2026-04-25 14:32 40.79235 29.91499 16827 ft 346 kts 340°
2026-04-25 14:33 40.81505 29.90452 16411 ft 344 kts 340°
2026-04-25 14:33 40.83703 29.89294 16014 ft 337 kts 328°
2026-04-25 14:33 40.84957 29.88032 15761 ft 337 kts 314°
2026-04-25 14:34 40.86299 29.85470 15374 ft 337 kts 292°
2026-04-25 14:34 40.86812 29.82497 14997 ft 330 kts 271°
2026-04-25 14:34 40.86821 29.79465 14600 ft 330 kts 269°
2026-04-25 14:34 40.86771 29.76430 14209 ft 331 kts 268°
2026-04-25 14:35 40.86714 29.73419 13815 ft 325 kts 269°
2026-04-25 14:35 40.86678 29.70441 13384 ft 324 kts 269°
2026-04-25 14:35 40.86648 29.67467 12985 ft 323 kts 269°
2026-04-25 14:35 40.86624 29.64533 12585 ft 316 kts 272°
2026-04-25 14:36 40.86926 29.61652 12201 ft 317 kts 278°
2026-04-25 14:36 40.87118 29.59736 11927 ft 316 kts 276°
2026-04-25 14:36 40.87385 29.56884 11543 ft 311 kts 276°
2026-04-25 14:36 40.87673 29.54046 11158 ft 311 kts 277°
2026-04-25 14:37 40.88067 29.50349 10639 ft 302 kts 277°
2026-04-25 14:37 40.88346 29.47655 10477 ft 288 kts 276°
2026-04-25 14:37 40.88482 29.45107 10354 ft 270 kts 272°
2026-04-25 14:37 40.88650 29.42664 10164 ft 268 kts 275°
2026-04-25 14:38 40.88836 29.40202 9895 ft 267 kts 274°
2026-04-25 14:38 40.88938 29.38560 9698 ft 264 kts 273°
2026-04-25 14:38 40.89077 29.36126 9426 ft 266 kts 273°
2026-04-25 14:38 40.89221 29.33683 9153 ft 264 kts 273°
2026-04-25 14:39 40.89368 29.31271 8874 ft 264 kts 273°
2026-04-25 14:39 40.89514 29.28845 8610 ft 265 kts 272°
2026-04-25 14:39 40.89656 29.26479 8351 ft 260 kts 272°
2026-04-25 14:39 40.89799 29.24075 8082 ft 264 kts 272°
2026-04-25 14:40 40.89940 29.21693 7803 ft 258 kts 272°
2026-04-25 14:40 40.90081 29.19305 7540 ft 262 kts 272°
2026-04-25 14:40 40.90223 29.16917 7271 ft 258 kts 272°
2026-04-25 14:40 40.90362 29.14541 7001 ft 260 kts 272°
2026-04-25 14:41 40.90501 29.12176 6730 ft 255 kts 272°
2026-04-25 14:41 40.90638 29.09818 6463 ft 258 kts 272°
2026-04-25 14:41 40.90776 29.07450 6185 ft 257 kts 272°
2026-04-25 14:41 40.90911 29.05134 5924 ft 249 kts 272°
2026-04-25 14:42 40.91040 29.02910 5814 ft 234 kts 272°
2026-04-25 14:42 40.91122 29.01514 5751 ft 230 kts 272°
2026-04-25 14:42 40.91410 28.98640 5364 ft 238 kts 274°
2026-04-25 14:42 40.91561 28.96463 5040 ft 238 kts 273°
2026-04-25 14:43 40.91728 28.94278 4718 ft 239 kts 275°
2026-04-25 14:43 40.91924 28.92097 4395 ft 238 kts 276°
2026-04-25 14:43 40.92117 28.89954 4083 ft 237 kts 276°
2026-04-25 14:43 40.92304 28.87819 3987 ft 232 kts 276°
2026-04-25 14:44 40.92488 28.85681 3993 ft 236 kts 276°
2026-04-25 14:44 40.92675 28.83527 3990 ft 236 kts 276°
2026-04-25 14:44 40.92871 28.81365 3993 ft 237 kts 278°
2026-04-25 14:44 40.93544 28.79416 3964 ft 237 kts 311°
2026-04-25 14:45 40.94845 28.78108 3978 ft 236 kts 329°
2026-04-25 14:45 40.96266 28.77007 3991 ft 236 kts 330°
2026-04-25 14:45 40.97775 28.76207 3954 ft 233 kts 354°
2026-04-25 14:45 40.99365 28.76230 3979 ft 227 kts
2026-04-25 14:46 41.00941 28.76168 3977 ft 226 kts 358°
2026-04-25 14:46 41.02517 28.76117 3977 ft 226 kts 359°
2026-04-25 14:46 41.04086 28.76084 3977 ft 225 kts 359°
2026-04-25 14:46 41.05615 28.76054 3976 ft 211 kts 359°
2026-04-25 14:47 41.07061 28.76027 3971 ft 207 kts 359°
2026-04-25 14:47 41.08012 28.76008 3848 ft 204 kts 359°
2026-04-25 14:47 41.09870 28.75972 3500 ft 195 kts 359°
2026-04-25 14:47 41.11215 28.75946 3253 ft 191 kts 359°
2026-04-25 14:48 41.12530 28.75920 3016 ft 187 kts 360°
2026-04-25 14:48 41.13811 28.75895 2765 ft 184 kts
2026-04-25 14:48 41.15019 28.75870 2540 ft 168 kts
2026-04-25 14:48 41.16193 28.75856 2314 ft 169 kts
2026-04-25 14:49 41.17367 28.75832 2105 ft 164 kts
2026-04-25 14:49 41.18441 28.75809 1877 ft 148 kts
2026-04-25 14:49 41.19475 28.75798 1699 ft 150 kts
2026-04-25 14:49 41.20502 28.75778 1477 ft 144 kts
2026-04-25 14:50 41.21515 28.75758 1296 ft 147 kts
2026-04-25 14:50 41.22548 28.75745 1044 ft 149 kts
2026-04-25 14:50 41.23586 28.75728 849 ft 150 kts
2026-04-25 14:50 41.24632 28.75703 664 ft 148 kts
2026-04-25 14:51 41.25667 28.75682 463 ft 149 kts
2026-04-25 14:51 41.26699 28.75661 348 ft 140 kts
2026-04-25 14:51 41.27466 28.75646 335 ft 80 kts 359°
2026-04-25 14:51 41.27902 28.75632 339 ft 39 kts 354°
2026-04-25 14:52 41.28071 28.75550 337 ft 16 kts 329°
2026-04-25 14:52 41.28152 28.75469 335 ft 13 kts 304°
2026-04-25 14:52 41.28150 28.75377 336 ft 8 kts 232°
2026-04-25 14:52 41.28123 28.75355 335 ft 5 kts 198°
2026-04-25 14:53 41.28061 28.75349 337 ft 11 kts 181°
2026-04-25 14:53 41.27955 28.75351 335 ft 19 kts 179°
2026-04-25 14:53 41.27799 28.75355 336 ft 25 kts 179°
2026-04-25 14:53 41.27626 28.75359 335 ft 25 kts 179°
2026-04-25 14:54 41.27449 28.75364 336 ft 25 kts 179°
2026-04-25 14:54 41.27271 28.75367 340 ft 26 kts 179°
2026-04-25 14:54 41.27104 28.75371 337 ft 23 kts 179°
2026-04-25 14:54 41.26943 28.75376 337 ft 23 kts 178°
2026-04-25 14:55 41.26781 28.75379 337 ft 24 kts 180°
2026-04-25 14:55 41.26619 28.75382 338 ft 24 kts 179°
2026-04-25 14:55 41.26456 28.75387 338 ft 22 kts 179°
2026-04-25 14:55 41.26362 28.75389 338 ft 8 kts 179°
2026-04-25 14:56 41.26324 28.75389 337 ft 3 kts 179°
2026-04-25 14:56 41.26315 28.75390 336 ft 0 kts 179°
2026-04-25 14:56 41.26303 28.75389 335 ft 5 kts 184°
2026-04-25 14:56 41.26258 28.75358 335 ft 10 kts 233°
2026-04-25 14:57 41.26245 28.75252 339 ft 13 kts 268°
2026-04-25 14:57 41.26244 28.75123 339 ft 15 kts 269°
2026-04-25 14:57 41.26208 28.75006 336 ft 11 kts 202°
2026-04-25 14:57 41.26150 28.74972 337 ft 9 kts 233°
2026-04-25 14:58 41.26128 28.74905 337 ft 5 kts 251°
2026-04-25 14:58 41.26125 28.74895 337 ft 0 kts 251°